Middletown, OH

3:38 PM EDT on March 30, 2017 (GMT -0400)
Hook Field Municipal

Weather History for KMWO - March, 2014

Change the Weather History Date:

Tuesday, March 18, 2014

  Actual Average (KFFO) Record (KFFO)
Temperature  
Mean Temperature 41 °F -  
Max Temperature 57 °F 48 °F 78 °F (2012)
Min Temperature 25 °F 28 °F 23 °F (2004)
Degree Days  
Heating Degree Days 24    
Moisture  
Dew Point 28 °F    
Average Humidity 60    
Maximum Humidity 82    
Minimum Humidity 39    
Precipitation  
Precipitation 0.00 in - - ()
Sea Level Pressure  
Sea Level Pressure 29.93 in    
Wind  
Wind Speed 4 mph (SE)    
Max Wind Speed 14 mph    
Max Gust Speed 21 mph    
Visibility 10 miles    
Events      
Averages and records for this station are not official NWS values.
T = Trace of Precipitation, MM = Missing Value Source: NWS Daily Summary

Daily Weather History Graph

Daily Weather History Graph

Search for Another Location

Airport or City:

Trip Planner

Search our weather history database for the weather conditions in past years. The results will help you decide how hot, cold, wet, or windy it might be!

Date:

Astronomy

Mar. 18, 2014 Rise Set
Actual Time 7:44 AM EDT 7:47 PM EDT
Civil Twilight 7:17 AM EDT 8:14 PM EDT
Nautical Twilight 6:46 AM EDT 8:45 PM EDT
Astronomical Twilight 6:14 AM EDT 9:17 PM EDT
Moon 10:03 PM EDT (3/18) 8:33 AM EDT (3/18)
Length of Visible Light 12h 57m
Length of Day
12h 03m
Waning Gibbous, 96% of the Moon is Illuminated
Mar 18
Waning Gibbous
Mar 23
Last Quarter
Mar 30
New
Apr 7
First Quarter
Apr 15
Full

Hourly Weather History & Observations

Time (EDT) Temp. Windchill Dew Point Humidity Pressure Visibility Wind Dir Wind Speed Gust Speed Precip Events Conditions
12:15 AM 37.6 °F 34.0 °F 22.1 °F 54% 29.93 in 10.0 mi ESE 4.6 mph - N/A   Mostly Cloudy
12:35 AM 35.1 °F - 20.8 °F 56% 29.93 in 10.0 mi Calm Calm - N/A   Scattered Clouds
12:55 AM 35.1 °F - 21.2 °F 57% 29.92 in 10.0 mi Calm Calm - N/A   Clear
1:15 AM 34.2 °F 31.2 °F 20.8 °F 58% 29.92 in 10.0 mi East 3.5 mph - N/A   Clear
1:35 AM 32.5 °F - 24.3 °F 72% 29.92 in 10.0 mi Calm Calm - N/A   Clear
1:55 AM 30.2 °F - 22.8 °F 74% 29.92 in 10.0 mi Calm Calm - N/A   Clear
2:15 AM 28.4 °F - 21.2 °F 74% 29.92 in 10.0 mi Calm Calm - N/A   Clear
2:35 AM 27.9 °F - 21.2 °F 76% 29.93 in 10.0 mi Calm Calm - N/A   Clear
2:55 AM 27.9 °F - 22.1 °F 79% 29.93 in 10.0 mi Calm Calm - N/A   Clear
3:15 AM 27.9 °F - 21.6 °F 77% 29.93 in 10.0 mi Calm Calm - N/A   Clear
3:35 AM 27.9 °F - 21.6 °F 77% 29.93 in 10.0 mi Calm Calm - N/A   Clear
3:55 AM 27.9 °F 24.0 °F 21.9 °F 78% 29.92 in 10.0 mi North 3.5 mph - N/A   Clear
4:15 AM 27.9 °F - 21.9 °F 78% 29.92 in 10.0 mi Calm Calm - N/A   Clear
4:35 AM 27.9 °F - 22.3 °F 80% 29.92 in 10.0 mi Calm Calm - N/A   Clear
4:55 AM 27.9 °F - 22.3 °F 80% 29.92 in 10.0 mi Calm Calm - N/A   Clear
5:15 AM 27.9 °F - 22.8 °F 81% 29.92 in 10.0 mi Calm Calm - N/A   Clear
5:35 AM 25.3 °F - 20.3 °F 81% 29.92 in 10.0 mi Calm Calm - N/A   Clear
5:55 AM 25.3 °F - 20.3 °F 81% 29.92 in 10.0 mi Calm Calm - N/A   Clear
6:15 AM 27.3 °F 23.4 °F 22.5 °F 82% 29.93 in 10.0 mi North 3.5 mph - N/A   Clear
6:35 AM 27.7 °F 23.8 °F 22.8 °F 82% 29.95 in 10.0 mi NE 3.5 mph - N/A   Scattered Clouds
6:55 AM 27.9 °F 24.0 °F 22.1 °F 79% 29.95 in 10.0 mi ENE 3.5 mph - N/A   Mostly Cloudy
7:15 AM 27.9 °F - 23.0 °F 82% 29.95 in 10.0 mi Calm Calm - N/A   Overcast
7:35 AM 28.2 °F 24.4 °F 23.0 °F 81% 29.96 in 10.0 mi NE 3.5 mph - N/A   Overcast
7:55 AM 27.9 °F - 22.6 °F 81% 29.97 in 10.0 mi Calm Calm - N/A   Mostly Cloudy
8:15 AM 28.9 °F - 23.4 °F 80% 29.96 in 10.0 mi Calm Calm - N/A   Scattered Clouds
8:35 AM 29.8 °F - 24.3 °F 80% 29.96 in 10.0 mi Calm Calm - N/A   Mostly Cloudy
8:55 AM 32.5 °F - 27.3 °F 81% 29.97 in 10.0 mi Calm Calm - N/A   Overcast
9:15 AM 32.9 °F - 26.2 °F 76% 29.97 in 10.0 mi Calm Calm - N/A   Mostly Cloudy
9:35 AM 35.1 °F - 26.6 °F 71% 29.97 in 10.0 mi Calm Calm - N/A   Clear
9:55 AM 37.6 °F 34.0 °F 27.3 °F 66% 29.98 in 10.0 mi ENE 4.6 mph - N/A   Clear
10:15 AM 40.1 °F 35.3 °F 27.3 °F 60% 29.98 in 10.0 mi ENE 6.9 mph - N/A   Clear
10:35 AM 42.8 °F 38.0 °F 27.7 °F 55% 29.98 in 10.0 mi ESE 8.1 mph - N/A   Clear
10:55 AM 45.1 °F 40.8 °F 28.9 °F 53% 29.98 in 10.0 mi East 8.1 mph - N/A   Clear
11:15 AM 47.7 °F - 31.1 °F 53% 29.98 in 10.0 mi East 9.2 mph 18.4 mph N/A   Clear
11:35 AM 47.7 °F - 30.2 °F 51% 29.98 in 10.0 mi ESE 12.7 mph - N/A   Clear
11:55 AM 47.7 °F - 29.1 °F 49% 29.98 in 10.0 mi SSE 11.5 mph - N/A   Clear
12:15 PM 47.7 °F - 28.6 °F 48% 29.99 in 10.0 mi ESE 12.7 mph 17.3 mph N/A   Clear
12:35 PM 49.5 °F - 29.3 °F 46% 29.99 in 10.0 mi ESE 13.8 mph 17.3 mph N/A   Clear
12:55 PM 51.4 °F - 30.4 °F 44% 29.98 in 10.0 mi SE 10.4 mph 20.7 mph N/A   Clear
1:15 PM 52.7 °F - 30.7 °F 43% 29.98 in 10.0 mi ESE 11.5 mph 17.3 mph N/A   Clear
1:35 PM 52.7 °F - 30.9 °F 43% 29.98 in 10.0 mi SSE 13.8 mph 18.4 mph N/A   Clear
1:55 PM 52.7 °F - 30.6 °F 43% 29.98 in 10.0 mi SSE 11.5 mph 19.6 mph N/A   Clear
2:15 PM 52.7 °F - 30.6 °F 43% 29.97 in 10.0 mi SSE 11.5 mph 19.6 mph N/A   Clear
2:35 PM 52.9 °F - 30.2 °F 42% 29.96 in 10.0 mi SE 11.5 mph 18.4 mph N/A   Clear
2:55 PM 55.2 °F - 31.5 °F 40% 29.95 in 10.0 mi SSE 10.4 mph 16.1 mph N/A   Clear
3:15 PM 53.2 °F - 30.2 °F 41% 29.95 in 10.0 mi South 10.4 mph 18.4 mph N/A   Clear
3:35 PM 55.4 °F - 31.3 °F 40% 29.95 in 10.0 mi SSE 10.4 mph 16.1 mph N/A   Clear
3:55 PM 55.4 °F - 30.7 °F 39% 29.95 in 10.0 mi SE 5.8 mph - N/A   Clear
4:15 PM 56.1 °F - 31.5 °F 39% 29.94 in 10.0 mi South 11.5 mph - N/A   Clear
4:35 PM 55.4 °F - 31.1 °F 40% 29.93 in 10.0 mi South 13.8 mph 17.3 mph N/A   Clear
4:55 PM 55.4 °F - 31.8 °F 41% 29.93 in 10.0 mi South 10.4 mph - N/A   Clear
5:15 PM 55.4 °F - 31.6 °F 40% 29.92 in 10.0 mi South 12.7 mph 17.3 mph N/A   Clear
5:35 PM 55.4 °F - 31.6 °F 40% 29.91 in 10.0 mi SSE 11.5 mph - N/A   Clear
5:55 PM 55.4 °F - 31.8 °F 41% 29.90 in 10.0 mi South 9.2 mph 17.3 mph N/A   Clear
6:15 PM 57.6 °F - 32.7 °F 39% 29.89 in 10.0 mi SSE 9.2 mph - N/A   Clear
6:35 PM 55.4 °F - 32.0 °F 41% 29.89 in 10.0 mi South 10.4 mph - N/A   Clear
6:55 PM 55.4 °F - 32.2 °F 41% 29.88 in 10.0 mi South 6.9 mph - N/A   Clear
7:15 PM 55.4 °F - 32.9 °F 43% 29.88 in 10.0 mi SSE 11.5 mph - N/A   Clear
7:35 PM 55.4 °F - 34.0 °F 44% 29.87 in 10.0 mi SSE 9.2 mph - N/A   Clear
7:55 PM 52.7 °F - 33.4 °F 48% 29.87 in 10.0 mi SSE 6.9 mph - N/A   Clear
8:15 PM 52.7 °F - 34.9 °F 51% 29.87 in 10.0 mi SSE 8.1 mph - N/A   Clear
8:35 PM 52.7 °F - 35.4 °F 52% 29.87 in 10.0 mi SSE 6.9 mph - N/A   Clear
8:55 PM 52.2 °F - 36.3 °F 55% 29.87 in 10.0 mi South 5.8 mph - N/A   Clear
9:15 PM 49.5 °F - 35.8 °F 59% 29.89 in 10.0 mi SSW 9.2 mph - N/A   Clear
9:35 PM 47.7 °F - 35.1 °F 62% 29.89 in 10.0 mi SW 8.1 mph - N/A   Clear
9:55 PM 47.7 °F - 37.2 °F 67% 29.89 in 10.0 mi South 4.6 mph - N/A   Clear
10:15 PM 47.7 °F - 36.1 °F 64% 29.89 in 10.0 mi SSW 5.8 mph - N/A   Clear
10:35 PM 47.7 °F - 37.4 °F 68% 29.87 in 10.0 mi South 3.5 mph - N/A   Clear
10:55 PM 47.7 °F - 37.0 °F 67% 29.85 in 10.0 mi SE 4.6 mph - N/A   Clear
11:15 PM 47.7 °F - 37.2 °F 67% 29.84 in 10.0 mi Calm Calm - N/A   Scattered Clouds
11:35 PM 40.5 °F - 32.7 °F 74% 29.85 in 10.0 mi Calm Calm - N/A   Clear
11:55 PM 38.8 °F - 33.6 °F 82% 29.85 in 10.0 mi Calm Calm - N/A   Clear